When you browse on this site, cookies collect data to enhance your experience and personalize the content and advertising you see.
Visit our Privacy Policy to learn more. By continuing to use the site, you agree to this use of cookies and data.
  • In Hungary
  • List of Countries
  • For 7 days
  • Water Temperature
  • Weather Map
  • News
  • Weather Widgets
  • user-avatar
    Login

    Hourly Weather Savchenko

    Today, 21 October, Monday

    Time Temperature Precipitation Wind Pressure Humidity
    00:00 +13°C° 0 mm 3 mps 765 mmHg 76%
    01:00 +13°C° 0 mm 3 mps 765 mmHg 77%
    02:00 +12°C° 0 mm 3 mps 765 mmHg 78%
    03:00 +13°C° 0 mm 2 mps 765 mmHg 83%
    04:00 +12°C° 0 mm 3 mps 765 mmHg 83%
    05:00 +11°C° 0 mm 3 mps 766 mmHg 83%
    06:00 +11°C° 0 mm 3 mps 766 mmHg 83%
    07:00 +12°C° 0 mm 3 mps 766 mmHg 78%
    08:00 +13°C° 0 mm 4 mps 766 mmHg 73%
    09:00 +14°C° 0 mm 4 mps 766 mmHg 70%
    10:00 +17°C° 0 mm 4 mps 766 mmHg 62%
    11:00 +18°C° 0 mm 4 mps 766 mmHg 55%
    12:00 +20°C° 0 mm 4 mps 766 mmHg 48%
    13:00 +21°C° 0 mm 4 mps 766 mmHg 46%
    14:00 +21°C° 0 mm 4 mps 765 mmHg 44%
    15:00 +22°C° 0 mm 3 mps 765 mmHg 42%
    16:00 +20°C° 0 mm 3 mps 765 mmHg 46%
    17:00 +19°C° 0 mm 3 mps 765 mmHg 51%
    18:00 +18°C° 0 mm 3 mps 765 mmHg 55%
    19:00 +17°C° 0 mm 3 mps 765 mmHg 56%
    20:00 +16°C° 0 mm 3 mps 765 mmHg 57%
    21:00 +14°C° 0 mm 3 mps 765 mmHg 58%
    22:00 +14°C° 0 mm 3 mps 765 mmHg 60%
    23:00 +13°C° 0 mm 3 mps 765 mmHg 61%

    Tomorrow, 22 October, Tuesday

    Time Temperature Precipitation Wind Pressure Humidity
    00:00 +14°C° 0 mm 2 mps 765 mmHg 62%
    01:00 +13°C° 0 mm 2 mps 765 mmHg 63%
    02:00 +13°C° 0 mm 2 mps 765 mmHg 65%
    03:00 +13°C° 0 mm 1 mps 765 mmHg 66%
    04:00 +12°C° 0 mm 1 mps 765 mmHg 68%
    05:00 +12°C° 0 mm 1 mps 765 mmHg 69%
    06:00 +12°C° 0 mm 2 mps 765 mmHg 70%
    07:00 +13°C° 0 mm 1 mps 765 mmHg 67%
    08:00 +14°C° 0 mm 1 mps 765 mmHg 64%
    09:00 +15°C° 0 mm 1 mps 765 mmHg 61%
    10:00 +16°C° 0 mm 1 mps 765 mmHg 55%
    11:00 +18°C° 0 mm 2 mps 765 mmHg 50%
    12:00 +19°C° 0 mm 2 mps 765 mmHg 45%
    13:00 +20°C° 0 mm 1 mps 765 mmHg 43%
    14:00 +21°C° 0 mm 1 mps 765 mmHg 41%
    15:00 +22°C° 0 mm 1 mps 764 mmHg 39%
    16:00 +20°C° 0 mm 1 mps 764 mmHg 42%
    17:00 +19°C° 0 mm 1 mps 764 mmHg 45%
    18:00 +18°C° 0 mm 1 mps 764 mmHg 48%
    19:00 +18°C° 0 mm 1 mps 764 mmHg 50%
    20:00 +16°C° 0 mm 1 mps 764 mmHg 51%
    21:00 +15°C° 0 mm 0 mps 765 mmHg 53%
    22:00 +14°C° 0 mm 0 mps 764 mmHg 54%
    23:00 +14°C° 0 mm 0 mps 764 mmHg 56%

    Day after tomorrow, 23 October, Wednesday

    Time Temperature Precipitation Wind Pressure Humidity
    00:00 +14°C° 0 mm 0 mps 764 mmHg 57%
    01:00 +13°C° 0 mm 0 mps 764 mmHg 58%
    02:00 +13°C° 0 mm 0 mps 764 mmHg 59%
    03:00 +13°C° 0 mm 0 mps 764 mmHg 60%
    04:00 +13°C° 0 mm 0 mps 764 mmHg 60%
    05:00 +13°C° 0 mm 0 mps 764 mmHg 60%
    06:00 +13°C° 0 mm 0 mps 764 mmHg 60%
    07:00 +14°C° 0 mm 0 mps 764 mmHg 58%
    08:00 +14°C° 0 mm 0 mps 764 mmHg 56%
    09:00 +16°C° 0 mm 1 mps 764 mmHg 54%
    10:00 +18°C° 0 mm 1 mps 764 mmHg 50%
    11:00 +20°C° 0 mm 1 mps 764 mmHg 46%
    12:00 +21°C° 0 mm 1 mps 764 mmHg 43%
    13:00 +21°C° 0 mm 1 mps 764 mmHg 42%
    14:00 +22°C° 0 mm 1 mps 764 mmHg 41%
    15:00 +22°C° 0 mm 1 mps 764 mmHg 40%
    16:00 +21°C° 0 mm 1 mps 764 mmHg 44%
    17:00 +20°C° 0 mm 1 mps 763 mmHg 47%
    18:00 +19°C° 0 mm 1 mps 763 mmHg 50%
    19:00 +17°C° 0 mm 2 mps 763 mmHg 51%
    20:00 +17°C° 0 mm 2 mps 763 mmHg 52%
    21:00 +16°C° 0 mm 2 mps 764 mmHg 53%
    22:00 +16°C° 0 mm 2 mps 763 mmHg 54%
    23:00 +15°C° 0 mm 2 mps 763 mmHg 56%

    24 October, Thursday

    Time Temperature Precipitation Wind Pressure Humidity
    00:00 +15°C° 0 mm 1 mps 763 mmHg 57%
    01:00 +14°C° 0 mm 1 mps 763 mmHg 58%
    02:00 +14°C° 0 mm 1 mps 763 mmHg 58%
    03:00 +13°C° 0 mm 1 mps 763 mmHg 59%
    04:00 +13°C° 0 mm 1 mps 763 mmHg 59%
    05:00 +13°C° 0 mm 1 mps 763 mmHg 59%
    06:00 +12°C° 0 mm 1 mps 763 mmHg 60%
    07:00 +13°C° 0 mm 1 mps 763 mmHg 56%
    08:00 +14°C° 0 mm 2 mps 763 mmHg 53%
    09:00 +15°C° 0 mm 2 mps 764 mmHg 49%
    10:00 +17°C° 0 mm 2 mps 763 mmHg 45%
    11:00 +18°C° 0 mm 2 mps 763 mmHg 40%
    12:00 +19°C° 0 mm 3 mps 763 mmHg 35%
    13:00 +20°C° 0 mm 3 mps 763 mmHg 34%
    14:00 +20°C° 0 mm 2 mps 763 mmHg 33%
    15:00 +21°C° 0 mm 2 mps 762 mmHg 32%
    16:00 +19°C° 0 mm 2 mps 762 mmHg 35%
    17:00 +18°C° 0 mm 2 mps 762 mmHg 39%
    18:00 +17°C° 0 mm 2 mps 762 mmHg 42%
    19:00 +16°C° 0 mm 2 mps 762 mmHg 44%
    20:00 +16°C° 0 mm 2 mps 762 mmHg 45%
    21:00 +15°C° 0 mm 2 mps 763 mmHg 47%
    22:00 +15°C° 0 mm 2 mps 763 mmHg 48%
    23:00 +14°C° 0 mm 2 mps 762 mmHg 50%

    25 October, Friday

    Time Temperature Precipitation Wind Pressure Humidity
    00:00 +13°C° 0 mm 2 mps 762 mmHg 51%
    01:00 +13°C° 0 mm 1 mps 762 mmHg 53%
    02:00 +13°C° 0 mm 1 mps 762 mmHg 54%
    03:00 +12°C° 0 mm 1 mps 762 mmHg 56%
    04:00 +12°C° 0 mm 1 mps 762 mmHg 57%
    05:00 +12°C° 0 mm 1 mps 762 mmHg 58%
    06:00 +11°C° 0 mm 1 mps 762 mmHg 60%
    07:00 +12°C° 0 mm 1 mps 763 mmHg 57%
    08:00 +13°C° 0 mm 2 mps 763 mmHg 54%
    09:00 +14°C° 0 mm 2 mps 763 mmHg 51%
    10:00 +16°C° 0 mm 2 mps 763 mmHg 46%
    11:00 +17°C° 0 mm 2 mps 763 mmHg 41%
    12:00 +19°C° 0 mm 2 mps 763 mmHg 37%
    13:00 +19°C° 0 mm 2 mps 763 mmHg 35%
    14:00 +20°C° 0 mm 2 mps 763 mmHg 33%
    15:00 +20°C° 0 mm 2 mps 763 mmHg 32%
    16:00 +19°C° 0 mm 2 mps 763 mmHg 35%
    17:00 +18°C° 0 mm 2 mps 763 mmHg 38%
    18:00 +16°C° 0 mm 2 mps 763 mmHg 41%
    19:00 +16°C° 0 mm 2 mps 763 mmHg 42%
    20:00 +15°C° 0 mm 2 mps 763 mmHg 43%
    21:00 +15°C° 0 mm 2 mps 763 mmHg 45%
    22:00 +14°C° 0 mm 2 mps 763 mmHg 47%
    23:00 +14°C° 0 mm 2 mps 763 mmHg 48%

    26 October, Saturday

    Time Temperature Precipitation Wind Pressure Humidity
    00:00 +13°C° 0 mm 2 mps 763 mmHg 50%
    01:00 +13°C° 0 mm 2 mps 763 mmHg 52%
    02:00 +13°C° 0 mm 2 mps 764 mmHg 53%
    03:00 +12°C° 0 mm 2 mps 764 mmHg 55%
    04:00 +12°C° 0 mm 2 mps 764 mmHg 56%
    05:00 +12°C° 0 mm 2 mps 764 mmHg 57%
    06:00 +10°C° 0 mm 2 mps 764 mmHg 57%
    07:00 +12°C° 0 mm 2 mps 764 mmHg 55%
    08:00 +13°C° 0 mm 2 mps 764 mmHg 52%
    09:00 +14°C° 0 mm 2 mps 764 mmHg 49%
    10:00 +16°C° 0 mm 2 mps 764 mmHg 44%
    11:00 +18°C° 0 mm 2 mps 764 mmHg 39%
    12:00 +19°C° 0 mm 3 mps 764 mmHg 34%
    13:00 +20°C° 0 mm 3 mps 764 mmHg 34%
    14:00 +20°C° 0 mm 3 mps 764 mmHg 34%
    15:00 +21°C° 0 mm 2 mps 763 mmHg 34%
    16:00 +19°C° 0 mm 2 mps 763 mmHg 38%
    17:00 +18°C° 0 mm 2 mps 763 mmHg 42%
    18:00 +17°C° 0 mm 2 mps 763 mmHg 46%
    19:00 +16°C° 0 mm 2 mps 763 mmHg 47%
    20:00 +16°C° 0 mm 2 mps 763 mmHg 49%
    21:00 +15°C° 0 mm 2 mps 764 mmHg 50%
    22:00 +15°C° 0 mm 2 mps 764 mmHg 53%
    23:00 +14°C° 0 mm 2 mps 763 mmHg 55%

    27 October, Sunday

    Time Temperature Precipitation Wind Pressure Humidity
    00:00 +14°C° 0 mm 2 mps 763 mmHg 58%
    01:00 +14°C° 0 mm 2 mps 763 mmHg 60%
    02:00 +13°C° 0 mm 2 mps 764 mmHg 63%
    03:00 +13°C° 0 mm 2 mps 764 mmHg 65%
    04:00 +13°C° 0 mm 2 mps 764 mmHg 68%
    05:00 +13°C° 0 mm 2 mps 763 mmHg 70%
    06:00 +12°C° 0 mm 2 mps 763 mmHg 72%
    07:00 +13°C° 0 mm 2 mps 764 mmHg 69%
    08:00 +14°C° 0 mm 2 mps 764 mmHg 66%
    09:00 +15°C° 0 mm 1 mps 764 mmHg 63%
    10:00 +17°C° 0 mm 2 mps 764 mmHg 59%
    11:00 +18°C° 0 mm 2 mps 764 mmHg 56%
    12:00 +20°C° 0 mm 2 mps 763 mmHg 52%
    13:00 +20°C° 0 mm 2 mps 763 mmHg 50%
    14:00 +21°C° 0 mm 2 mps 763 mmHg 47%
    15:00 +22°C° 0 mm 1 mps 762 mmHg 45%
    16:00 +21°C° 0 mm 1 mps 762 mmHg 49%
    17:00 +20°C° 0 mm 1 mps 762 mmHg 53%
    18:00 +18°C° 0 mm 1 mps 761 mmHg 57%
    19:00 +18°C° 0 mm 1 mps 761 mmHg 58%
    20:00 +16°C° 0 mm 1 mps 761 mmHg 60%
    21:00 +16°C° 0 mm 1 mps 761 mmHg 61%
    22:00 +15°C° 0 mm 1 mps 761 mmHg 60%
    23:00 +15°C° 0 mm 1 mps 761 mmHg 59%
    Show more